Hourly Data Report for July 28, 2021

WINDSOR A
ONTARIO
Current Station Operator: NAVCAN

42°16'34.000" N
82°57'19.000" W
189.60 m
6139530
71538
YQG

Download Data

Hourly Data (July 2021)
Hourly Data Report for July 28, 2021
TIME
LST
Temp Definition
°C
Dew Point Definition
°C
Rel Hum Definition
%
Precip. Amount Definition
mm

Wind Dir Definition
10's deg

Wind Spd Definition
km/h
Visibility Definition
km
Stn Press Definition
kPa
Hmdx Definition


Wind Chill Definition


Weather Definition


00:00 21.7 18.0 79 0.0 25 5 16.1 99.39 28   LegendNANA
01:00 21.5 18.3 82 0.0 LegendMM 4 16.1 99.38 28   LegendNANA
02:00 19.0 17.7 92 0.0 17 5 16.1 99.38     LegendNANA
03:00 19.6 17.8 89 0.0 25 4 16.1 99.40     LegendNANA
04:00 20.0 17.6 86 0.0 32 5 16.1 99.40 26   LegendNANA
05:00 20.2 19.1 94 0.0 34 9 16.1 99.40 27   LegendNANA
06:00 20.4 19.6 95 0.0 34 5 16.1 99.48 28   LegendNANA
07:00 22.0 20.3 90 0.0 35 5 16.1 99.53 30   LegendNANA
08:00 23.6 20.8 84 0.0 2 11 16.1 99.54 32   LegendNANA
09:00 24.2 20.6 80 0.0 5 9 16.1 99.52 32   LegendNANA
10:00 25.5 20.6 74 0.0 LegendMM 5 16.1 99.50 34   LegendNANA
11:00 26.7 20.0 66 0.0 3 9 16.1 99.53 34   LegendNANA
12:00 27.2 20.0 64 0.0 4 11 16.1 99.48 35   LegendNANA
13:00 27.5 20.3 64 0.0 8 13 16.1 99.45 35   LegendNANA
14:00 28.1 19.0 57 0.0 9 13 16.1 99.41 35   LegendNANA
15:00 28.3 18.3 54 0.0 8 5 16.1 99.38 35   LegendNANA
16:00 28.4 18.9 56 0.0 8 9 16.1 99.34 35   LegendNANA
17:00 27.2 21.3 70 0.0 15 9 16.1 99.36 36   LegendNANA
18:00 25.1 22.0 83 0.0 14 11 16.1 99.36 34   LegendNANA
19:00 24.3 21.9 86 0.0 15 9 16.1 99.34 34   LegendNANA
20:00 22.9 20.8 88 0.0 14 9 16.1 99.31 31   LegendNANA
21:00 22.1 20.9 93 0.0 15 8 16.1 99.30 30   LegendNANA
22:00 20.9 20.4 97 0.0 15 8 16.1 99.27 29   LegendNANA
23:00 20.3 19.8 97 0.0 11 5 9.7 99.26 28   Fog

Notes on Data Quality.

Legend

  • E = Estimated
  • M = Missing
  • NA = Not Available*
  • [empty] = Indicates an unobserved value
Date modified: